Station BABT2 - 8776604 - Baffin Bay, TX Image indicating link to RSS feed of recent meteorological observations for station BABT2


Conditions at BABT2 as of
(3:48 pm CDT)
2048 GMT on 05/22/2024:
     

Click on the graph icon in the table below to see a time series plot of the last five days of that observation.

5-day plot - Wind Direction Wind Direction (WDIR):ESE ( 120 deg true )
5-day plot - Wind Speed Wind Speed (WSPD): 21.0 kts
5-day plot - Wind Gust Wind Gust (GST): 26.0 kts
5-day plot - Atmospheric Pressure Atmospheric Pressure (PRES):29.72 in
5-day plot - Air Temperature Air Temperature (ATMP): 84.9 °F
5-day plot - Water Temperature Water Temperature (WTMP): 91.4 °F
5-day plot - Wind Speed at 10 Meters Wind Speed at 10 meters (WSPD10M): 21.4 kts
5-day plot - Wind Speed at 20 Meters Wind Speed at 20 meters (WSPD20M): 23.3 kts
5-day plot -  Wind Speed, Wind Gust and Atmospheric Pressure Combined plot of Wind Speed, Gust, and Air Pressure
Previous observations
TIME
(CDT)
5-day plot - Wind Direction
WDIR
 
5-day plot - Wind Speed
WSPD
kts
5-day plot - Wind Gust
GST
kts
5-day plot - Wave Height
WVHT
ft
5-day plot - Dominant Wave Period
DPD
sec
5-day plot - Average Wave Period
APD
sec
5-day plot - Mean Wave Direction
MWD
 
5-day plot - Atmospheric Pressure
PRES
in
5-day plot - Pressure Tendency
PTDY
in
5-day plot - Air Temperature
ATMP
°F
5-day plot - Water Temperature
WTMP
°F
5-day plot - Dew Point
DEWP
°F
5-day plot - Salinity
SAL
psu
5-day plot - Visibility
VIS
nmi
5-day plot - Tide (above MLLW)
TIDE
ft
2024-05-22 03:42 pmESE 20.0 26.0----29.72- 84.9 91.2----
2024-05-22 03:36 pmESE 22.0 28.0----29.72- 84.9 91.2----
2024-05-22 03:30 pmESE 20.0 25.1----29.72- 85.1 91.2----
2024-05-22 03:24 pmESE 20.0 25.1----29.73- 85.1 91.2----
2024-05-22 03:18 pmESE 20.0 26.0----29.73- 85.1 91.2----
2024-05-22 03:12 pmESE 21.0 25.1----29.74- 84.9 91.0----
2024-05-22 03:06 pmESE 20.0 25.1----29.74- 84.7 90.7----
2024-05-22 03:00 pmESE 21.0 25.1----29.75-0.04 84.9 90.5----
2024-05-22 02:54 pmESE 21.0 28.0----29.75- 84.7 90.7----
2024-05-22 02:48 pmESE 22.0 28.0----29.75- 84.6 90.7----
2024-05-22 02:42 pmESE 18.1 24.1----29.76- 85.1 90.5----
2024-05-22 02:36 pmESE 21.0 26.0----29.76- 84.9 90.5----
2024-05-22 02:30 pmESE 20.0 25.1----29.76- 84.7 90.5----
2024-05-22 02:24 pmESE 19.0 25.1----29.77- 84.6 90.5----
2024-05-22 02:18 pmESE 19.0 25.1----29.77- 84.7 90.3----
2024-05-22 02:12 pmESE 19.0 25.1----29.77- 84.6 90.3----
2024-05-22 02:06 pmESE 15.9 22.9----29.78- 84.9 90.1----
2024-05-22 02:00 pmESE 17.1 22.0----29.78+0.00 84.9 90.1----
2024-05-22 01:54 pmESE 19.0 24.1----29.78- 84.6 90.1----
2024-05-22 01:48 pmESE 18.1 25.1----29.78- 84.6 90.1----
2024-05-22 01:42 pmESE 19.0 25.1----29.78- 84.6 90.0----
2024-05-22 01:36 pmESE 15.9 21.0----29.78- 84.6 90.0----
2024-05-22 01:30 pmESE 18.1 22.9----29.79- 84.7 89.8----
2024-05-22 01:24 pmESE 19.0 22.9----29.78- 84.4 89.6----
2024-05-22 01:18 pmESE 17.1 22.9------- 89.8----
2024-05-22 01:12 pmESE 19.0 22.0------- 89.8----
2024-05-22 01:06 pmESE 18.1 22.0------- 89.6----
2024-05-22 01:00 pmESE 17.1 22.0------- 89.6----
2024-05-22 12:54 pmESE 17.1 25.1------- 89.6----
2024-05-22 12:48 pmESE 17.1 22.0------- 89.6----
2024-05-22 12:42 pmESE 18.1 22.0------- 89.4----
2024-05-22 12:36 pmESE 19.0 24.1------- 89.2----
2024-05-22 12:30 pmESE 20.0 24.1----29.79-------
2024-05-22 12:24 pmESE 19.0 24.1----29.79-------
2024-05-22 12:18 pmESE 18.1 25.1------- 88.9----
2024-05-22 12:12 pmESE 18.1 21.0------- 88.7----
2024-05-22 12:06 pmESE 18.1 24.1------- 88.7----
2024-05-22 12:00 pmESE 15.9 22.0----29.79+0.02- 88.5----
2024-05-22 11:54 amESE 19.0 24.1----29.78-- 88.5----
2024-05-22 11:48 amESE 17.1 22.0------- 88.5----
2024-05-22 11:42 amESE 18.1 22.9------- 88.3----
2024-05-22 11:36 amESE 17.1 20.0------- 88.2----
2024-05-22 11:30 amESE 15.9 21.0------------
2024-05-22 11:24 amESE 17.1 22.9------------
2024-05-22 11:18 amESE 17.1 22.0------ 84.0 87.8----
2024-05-22 11:12 amESE 15.9 19.0------ 84.0 87.8----
2024-05-22 11:06 amESE 15.9 20.0------ 83.8 87.6----
2024-05-22 11:00 amESE 15.0 19.0----29.78-0.01 83.8 87.6----
2024-05-22 10:54 amESE 14.0 21.0----29.78- 84.2 87.4----
2024-05-22 10:48 amESE 18.1 22.0----29.78- 83.5 87.3----
2024-05-22 10:42 amESE 17.1 20.0----29.78- 83.3 87.3----
2024-05-22 10:36 amESE 15.9 22.0----29.78- 83.3 87.1----
2024-05-22 10:30 amESE 15.0 19.0----29.78- 83.1 87.1----
2024-05-22 10:24 amESE 17.1 21.0----29.77- 83.3 86.9----
2024-05-22 10:18 amESE 15.0 22.0----29.77- 83.3 86.7----
2024-05-22 10:12 amESE 15.9 21.0----29.77- 83.3 86.7----
2024-05-22 10:06 amESE 17.1 21.0----29.77- 83.5 86.5----
2024-05-22 10:00 amESE 14.0 18.1----29.78+0.01 83.5 86.5----
2024-05-22 09:54 amESE 15.0 19.0----29.78- 83.1 86.5----
2024-05-22 09:48 amESE 15.9 20.0----29.78-- 86.5----
2024-05-22 09:42 amESE 15.0 18.1----29.78-- 86.5----
2024-05-22 09:36 amESE 14.0 18.1----29.78-- 86.5----
2024-05-22 09:30 amESE 14.0 18.1------------
2024-05-22 09:24 amESE 14.0 19.0------------
2024-05-22 09:18 amESE 15.9 19.0------------
2024-05-22 09:12 amESE 17.1 19.0------------
2024-05-22 09:06 amESE 15.9 19.0------------
2024-05-22 09:00 amESE 15.9 20.0----29.77+0.02 82.8 86.4----
2024-05-22 08:54 amESE 15.9 18.1----29.78- 82.6 86.2----
2024-05-22 08:48 amESE 13.0 18.1----29.78-- 86.4----
2024-05-22 08:42 amESE 14.0 17.1----29.78-- 86.4----
2024-05-22 08:36 amESE 13.0 19.0----29.78-- 86.4----
2024-05-22 08:30 amESE 13.0 15.9------------
2024-05-22 08:24 amESE 14.0 15.9------------
2024-05-22 08:18 amESE 12.0 15.0----29.79-- 86.4----
2024-05-22 08:12 amESE 8.9 12.0----29.79-- 86.4----
2024-05-22 08:06 am SE 8.0 12.0----29.79-- 86.4----
2024-05-22 08:00 am SE 8.9 12.0----29.79+0.05 82.4 86.4----
2024-05-22 07:54 am SE 11.1 13.0----29.79- 82.2 86.4----
2024-05-22 07:48 am SE 11.1 14.0----29.78- 82.2 86.4----
2024-05-22 07:42 am SE 9.9 12.0----29.78- 82.0 86.4----
2024-05-22 07:36 am SE 12.0 18.1----29.78- 82.2 86.4----
2024-05-22 07:30 am SE 14.0 15.9----29.77- 82.0 86.4----
2024-05-22 07:24 am SE 9.9 14.0----29.78- 82.0 86.4----
2024-05-22 07:18 am SE 9.9 14.0----29.78- 82.0 86.4----
2024-05-22 07:12 am SE 9.9 14.0----29.78- 82.0 86.4----
2024-05-22 07:06 am SE 12.0 15.0----29.77- 82.2 86.4----
2024-05-22 07:00 am SE 12.0 15.0----29.77+0.03 82.0 86.4----
2024-05-22 06:54 am SE 11.1 15.0----29.77- 82.0 86.4----
2024-05-22 06:48 am SE 12.0 15.0----29.77- 82.0 86.4----
2024-05-22 06:42 am SE 11.1 14.0----29.77- 82.0 86.4----
2024-05-22 06:36 am SE 12.0 15.0----29.76- 81.9 86.5----
2024-05-22 06:30 amESE 11.1 15.0----29.76- 82.2 86.5----
2024-05-22 06:24 amESE 12.0 15.9----29.75- 82.0 86.5----
2024-05-22 06:18 am SE 13.0 15.9----29.75- 82.0 86.5----
2024-05-22 06:12 amESE 12.0 14.0----29.75- 82.0 86.5----
2024-05-22 06:06 am SE 12.0 18.1----29.76- 82.2 86.5----
2024-05-22 06:00 amESE 15.0 18.1----29.75-0.02 81.9 86.5----
2024-05-22 05:54 am SE 15.0 18.1----29.74- 82.0 86.5----
2024-05-22 05:48 amESE 12.0 18.1----29.74- 82.2 86.5----
2024-05-22 05:42 amESE 13.0 18.1----29.74- 81.9 86.5----
2024-05-22 05:36 amESE 13.0 17.1----29.74- 82.0 86.5----
2024-05-22 05:30 amESE 14.0 18.1----29.73- 82.0 86.5----
2024-05-22 05:24 amESE 15.9 19.0----29.73- 82.2 86.5----
2024-05-22 05:18 amESE 13.0 19.0----29.74- 82.0 86.5----
2024-05-22 05:12 amESE 15.0 19.0----29.74- 82.0 86.5----
2024-05-22 05:06 amESE 15.0 18.1----29.74- 82.2 86.5----
2024-05-22 05:00 amESE 15.0 18.1----29.74-0.05 81.9 86.7----
2024-05-22 04:54 amESE 14.0 17.1----29.73- 82.0 86.7----
2024-05-22 04:48 amESE 14.0 15.9----29.73- 82.0 86.7----
2024-05-22 04:42 amESE 13.0 17.1----29.73- 82.0 86.7----
2024-05-22 04:36 amESE 14.0 17.1----29.74- 82.0 86.7----
2024-05-22 04:30 amESE 14.0 15.9----29.73- 82.0 86.7----
2024-05-22 04:24 amESE 15.0 17.1----29.73- 82.0 86.7----
2024-05-22 04:18 amESE 14.0 17.1----29.73- 82.2 86.7----
2024-05-22 04:12 amESE 14.0 17.1----29.73- 82.0 86.7----
2024-05-22 04:06 amESE 15.0 18.1----29.74- 82.2 86.7----
2024-05-22 04:00 amESE 14.0 18.1----29.74-0.05 82.0 86.7----
2024-05-22 03:54 amESE 15.0 18.1----29.74- 82.2 86.7----
2024-05-22 03:48 amESE 14.0 18.1----29.75- 82.2 86.9----
2024-05-22 03:42 amESE 13.0 17.1----29.75- 82.4 86.9----
2024-05-22 03:36 amESE 14.0 17.1----29.75- 82.2 86.9----
2024-05-22 03:30 amESE 15.0 15.9----29.76- 82.2 86.9----
2024-05-22 03:24 amESE 14.0 18.1----29.76- 82.4 86.9----
2024-05-22 03:18 amESE 15.0 17.1----29.76- 82.2 86.9----
2024-05-22 03:12 amESE 12.0 17.1----29.76- 82.4 86.9----
2024-05-22 03:06 amESE 15.0 17.1----29.77- 82.4 86.9----
2024-05-22 03:00 amESE 13.0 15.9----29.77-0.02 82.2 86.9----
2024-05-22 02:54 amESE 12.0 15.0----29.77- 82.6 86.9----
2024-05-22 02:48 amESE 12.0 15.0----29.78- 82.6 86.9----
2024-05-22 02:42 amESE 12.0 15.0----29.78- 82.8 87.1----
2024-05-22 02:36 amESE 13.0 15.9----29.78- 82.6 87.1----
2024-05-22 02:30 am SE 14.0 18.1----29.78- 82.6 87.1----
2024-05-22 02:24 amESE 13.0 15.0----29.78- 82.6 87.1----
2024-05-22 02:18 amESE 12.0 15.9----29.78- 82.8 87.3----
2024-05-22 02:12 am SE 13.0 15.9----29.78- 82.6 87.3----
2024-05-22 02:06 amESE 14.0 17.1----29.78- 82.6 87.3----
2024-05-22 02:00 amESE 13.0 17.1----29.78+0.03 82.8 87.3----
2024-05-22 01:54 am SE 13.0 17.1----29.79- 82.8 87.3----
2024-05-22 01:48 amESE 13.0 17.1----29.79- 82.9 87.4----
2024-05-22 01:42 amESE 14.0 18.1----29.79- 82.9 87.4----
2024-05-22 01:36 amESE 15.0 19.0----29.79- 82.9 87.4----
2024-05-22 01:30 amESE 13.0 17.1----29.80- 83.1 87.4----
2024-05-22 01:24 amESE 15.0 19.0----29.80- 83.1 87.4----
2024-05-22 01:18 amESE 13.0 17.1----29.80- 82.9 87.4----
2024-05-22 01:12 amESE 11.1 17.1----29.80- 83.1 87.4----
2024-05-22 01:06 amESE 14.0 17.1----29.79- 83.1 87.4----
2024-05-22 01:00 amESE 12.0 18.1----29.80+0.06 83.3 87.4----
2024-05-22 12:54 amESE 14.0 17.1----29.79- 83.1 87.4----
2024-05-22 12:48 amESE 15.0 18.1----29.79- 83.1 87.4----
2024-05-22 12:42 amESE 11.1 13.0----29.79- 82.9 87.4----
2024-05-22 12:36 am SE 11.1 15.9----29.80- 83.1 87.4----
2024-05-22 12:30 amESE 12.0 15.9----29.80- 82.8 87.4----
2024-05-22 12:24 am SE 15.0 17.1----29.80- 82.9 87.4----
2024-05-22 12:18 am SE 14.0 18.1----29.79- 83.1 87.4----
2024-05-22 12:12 am SE 13.0 17.1----29.79- 82.9 87.4----
2024-05-22 12:06 am SE 14.0 17.1----29.79- 83.1 87.4----
2024-05-22 12:00 amESE 15.0 18.1----29.79+0.06 83.1 87.4----
2024-05-21 11:54 pmESE 14.0 18.1----29.78- 82.9 87.4----
2024-05-21 11:48 pm SE 15.0 19.0----29.78- 82.9 87.4----
2024-05-21 11:42 pmESE 15.0 18.1----29.78- 83.1 87.6----
2024-05-21 11:36 pm SE 14.0 20.0----29.78- 83.1 87.6----
2024-05-21 11:30 pmESE 15.9 21.0----29.77- 83.1 87.6----
2024-05-21 11:24 pm SE 15.9 21.0----29.77- 82.9 87.8----
2024-05-21 11:18 pm SE 18.1 22.9----29.77- 82.9 88.2----
2024-05-21 11:12 pm SE 17.1 22.0----29.76- 83.1 88.2----
2024-05-21 11:06 pmESE 15.0 19.0----29.75- 82.9 88.2----
2024-05-21 11:00 pmESE 15.9 20.0----29.75+0.04 82.9 88.2----
2024-05-21 10:54 pmESE 15.9 19.0----29.75- 82.8 88.2----
2024-05-21 10:48 pmESE 14.0 20.0----29.75- 82.9 88.2----
2024-05-21 10:42 pmESE 15.0 20.0----29.74- 82.8 88.2----
2024-05-21 10:36 pmESE 15.0 20.0----29.74- 82.8 88.3----
2024-05-21 10:30 pmESE 15.0 20.0----29.74- 82.8 88.3----
2024-05-21 10:24 pmESE 15.9 19.0----29.74- 82.8 88.3----
2024-05-21 10:18 pmESE 15.9 21.0----29.74- 82.8 88.3----
2024-05-21 10:12 pmESE 15.9 21.0----29.73- 82.8 88.5----
2024-05-21 10:06 pmESE 18.1 21.0----29.73- 82.8 88.9----
2024-05-21 10:00 pmESE 15.9 20.0----29.74+0.05 82.6 88.9----
2024-05-21 09:54 pmESE 15.9 20.0----29.74- 82.9 88.7----
2024-05-21 09:48 pmESE 15.9 19.0----29.73- 82.8 88.9----
2024-05-21 09:42 pmESE 15.9 20.0----29.74- 82.8 89.1----
2024-05-21 09:36 pmESE 15.9 19.0----29.74- 82.9 89.2----
2024-05-21 09:30 pmESE 15.9 19.0----29.73- 82.8 89.6----
2024-05-21 09:24 pmESE 15.0 19.0----29.73- 82.8 89.6----
2024-05-21 09:18 pmESE 15.0 18.1----29.73- 82.8 89.6----
2024-05-21 09:12 pmESE 17.1 19.0----29.73- 82.8 89.6----
2024-05-21 09:06 pmESE 15.0 20.0----29.73- 82.9 89.6----
2024-05-21 09:00 pmESE 12.0 18.1----29.73+0.04 83.1 89.6----
2024-05-21 08:54 pmESE 17.1 20.0----29.72- 82.9 89.6----
2024-05-21 08:48 pmESE 15.9 22.0----29.72- 82.9 89.6----
2024-05-21 08:42 pmESE 15.9 20.0----29.73- 82.9 89.8----
2024-05-21 08:36 pmESE 15.9 20.0----29.72- 83.1 89.8----
2024-05-21 08:30 pmESE 15.0 20.0----29.72- 83.3 89.8----
2024-05-21 08:24 pmESE 15.9 21.0----29.72- 83.1 90.0----
2024-05-21 08:18 pmESE 15.9 20.0----29.72- 83.3 90.1----
2024-05-21 08:12 pmESE 15.0 21.0----29.72- 83.3 90.1----
2024-05-21 08:06 pmESE 19.0 22.0----29.72- 83.3 90.1----
2024-05-21 08:00 pmESE 18.1 24.1----29.71+0.01 83.3 90.3----
2024-05-21 07:54 pmESE 19.0 22.9----29.71- 83.3 90.3----
2024-05-21 07:48 pmESE 19.0 22.9----29.71- 83.3 90.3----
2024-05-21 07:42 pmESE 19.0 22.9----29.71- 83.5 90.3----
2024-05-21 07:36 pmESE 21.0 24.1----29.71- 83.5 90.5----
2024-05-21 07:30 pmESE 19.0 24.1----29.70- 83.3 90.5----
2024-05-21 07:24 pmESE 19.0 26.0----29.70- 83.7 90.5----
2024-05-21 07:18 pmESE 21.0 25.1----29.70- 83.7 90.7----
2024-05-21 07:12 pmESE 20.0 24.1----29.69- 83.7 90.7----
2024-05-21 07:06 pmESE 20.0 25.1----29.69- 83.8 90.7----
2024-05-21 07:00 pmESE 22.0 25.1----29.69-0.03 83.5 90.7----
2024-05-21 06:54 pmESE 20.0 27.0----29.69- 83.7 90.7----
2024-05-21 06:48 pmESE 19.0 25.1----29.69- 83.5 90.7----
2024-05-21 06:42 pmESE 20.0 27.0----29.69- 83.7 90.7----
2024-05-21 06:36 pmESE 20.0 27.0----29.69- 84.0 90.9----
2024-05-21 06:30 pmESE 20.0 26.0----29.69- 83.7 91.0----
2024-05-21 06:24 pmESE 20.0 25.1----29.69- 83.8 91.0----
2024-05-21 06:18 pmESE 17.1 26.0----29.69- 84.2 91.2----
2024-05-21 06:12 pmESE 20.0 25.1----29.69- 83.8 91.2----
2024-05-21 06:06 pmESE 22.0 25.1----29.69- 83.7 91.4----
2024-05-21 06:00 pmESE 20.0 22.9----29.69-0.04 83.8 91.4----
2024-05-21 05:54 pmESE 19.0 24.1----29.69- 84.0 91.6----
2024-05-21 05:48 pmESE 18.1 25.1----29.70- 84.2 91.6----
2024-05-21 05:42 pmESE 17.1 22.9----29.70- 84.4 91.6----
2024-05-21 05:36 pmESE 20.0 25.1----29.70- 84.0 91.6----
2024-05-21 05:30 pmESE 20.0 24.1----29.70- 84.2 91.6----
2024-05-21 05:24 pmESE 18.1 22.9----29.70- 84.0 91.6----
2024-05-21 05:18 pmESE 19.0 24.1----29.70- 84.2 91.8----
2024-05-21 05:12 pmESE 20.0 25.1----29.70- 84.2 91.8----
2024-05-21 05:06 pmESE 19.0 24.1----29.70- 84.6 91.9----
2024-05-21 05:00 pmESE 17.1 22.9----29.70-0.05 84.6 91.9----
2024-05-21 04:54 pmESE 18.1 22.9----29.70- 84.7 91.9----
2024-05-21 04:48 pmESE 17.1 24.1----29.70- 84.6 92.1----
2024-05-21 04:42 pmESE 19.0 25.1----29.70- 84.6 92.1----
2024-05-21 04:36 pmESE 18.1 25.1----29.70- 84.2 91.9----
2024-05-21 04:30 pmESE 19.0 22.0----29.71-- 91.9----
2024-05-21 04:24 pmESE 17.1 22.0----29.71-- 91.9----
2024-05-21 04:18 pmESE 17.1 22.9----29.71-- 92.1----
2024-05-21 04:12 pmESE 17.1 24.1----29.71-- 92.1----
2024-05-21 04:06 pmESE 19.0 22.9----29.71-- 92.1----
2024-05-21 04:00 pmESE 15.0 20.0----29.72-0.04 84.6 91.9----
2024-05-21 03:54 pmESE 19.0 24.1----29.72- 84.6 91.8----